Regional Weather Roundup
Issued by NWS

Home | Current Version | Previous Version | Text Only | Print | Product List | Glossary On
Versions: 1 2 3 4 5 6 7 8 9 10 11 12 13 14 15 16 17 18 19 20 21 22 23 24 25 26 27 28 29 30 31 32 33 34 35 36 37 38 39 40 41 42 43 44 45 46 47 48 49 50
000
ASUS43 KTOP 061559
RWRKS

WEATHER ROUNDUP FOR KANSAS
NATIONAL WEATHER SERVICE GOODLAND KS
1100 AM CDT MON JUL 06 2015

NOTE:  "FAIR" INDICATES FEW OR NO CLOUDS BELOW 12,000 FEET WITH NO
SIGNIFICANT WEATHER AND/OR OBSTRUCTIONS TO VISIBILITY.

KSZ001>006-013>018-027>032-041>047-061700-
NORTHWEST KANSAS

CITY           SKY/WX    TMP DP  RH WIND       PRES   REMARKS
GOODLAND       CLOUDY    63  61  93 N21G28    30.11R FOG
HAYS           PTSUNNY   81  64  57 N12       29.91R
HILL CITY      CLOUDY    74  68  81 N22       29.97R
RUSSELL        PTSUNNY   83  67  58 NW5       29.88R
$$

KSZ061>065-074>080-084>089-061700-
SOUTHWEST KANSAS

CITY           SKY/WX    TMP DP  RH WIND       PRES   REMARKS
DODGE CITY     FAIR      81  66  60 NW17G23   29.93R
ELKHART          N/A     78  57  48 NW20        N/A
GARDEN CITY    CLOUDY    73  64  73 N25G33    29.98R
GREAT BEND     FAIR      84  68  58 W8        29.88R
LIBERAL        FAIR      79  64  61 N20G25    30.00R
$$

KSZ066>073-081>083-090>101-061700-
SOUTHEAST KANSAS

CITY           SKY/WX    TMP DP  RH WIND       PRES   REMARKS
CHANUTE        FAIR      84  74  71 S14       29.95S
COFFEYVILLE    PTSUNNY   85  74  69 S13G22    29.95S
HUTCHINSON     FAIR      89  69  51 S14G24    29.87F
MEDICINE LODGE   N/A     89  68  49 S15G25    29.87S
NEWTON         FAIR      88  68  51 S18G24    29.92S
PARSONS        PTSUNNY   84  75  74 S10       29.96F
WICHITA INTL   PTSUNNY   89  69  51 S20       29.88F
WICHITA JABRA  FAIR      87  70  56 S18G26    29.89F
WINFIELD       FAIR      90  71  53 S17       29.92S HX  96
$$

KSZ007>012-019>026-033>040-048>060-102>105-061700-
NORTHEAST KANSAS

CITY           SKY/WX    TMP DP  RH WIND       PRES   REMARKS
CONCORDIA      FAIR      85  69  58 W9        29.88R
EMPORIA        FAIR      85  72  65 S17G23    29.91S
LAWRENCE       FAIR      86  73  65 S12G18    29.91S
MANHATTAN      PTSUNNY   86  71  60 SW12      29.87R
OLATHE IND     FAIR      83  72  69 S18       29.94S
OLATHE EXE     FAIR      82  73  74 SW10      29.93S
SALINA         FAIR      91  69  48 S15       29.87R HX  96
TOPEKA BILLARD FAIR      85  73  67 S13       29.89F
TOPEKA FORBES  FAIR      87  72  60 S17       29.90S
$$



USA.gov is the U.S. government's official web portal to all federal, state and local government web resources and services.